2001,8,1,0,5,-2.78,01,.24,01,-2.55,01,9900.00,99,9900.00,99
2001,8,1,0,10,-2.79,01,.35,01,-2.70,01,9900.00,99,9900.00,99
2001,8,1,0,15,-3.01,01,.23,01,-3.02,01,9900.00,99,9900.00,99
2001,8,1,0,20,-3.25,01,.06,01,-3.27,01,9900.00,99,9900.00,99
2001,8,1,0,25,-2.98,01,.15,01,-3.15,01,9900.00,99,9900.00,99
2001,8,1,0,30,-3.14,01,.18,01,-3.22,01,9900.00,99,9900.00,99
2001,8,1,0,35,-2.61,01,.17,01,-2.64,01,9900.00,99,9900.00,99
2001,8,1,0,40,-2.81,01,-.02,01,-2.84,01,9900.00,99,9900.00,99
2001,8,1,0,45,-3.12,01,-.09,01,-3.28,01,9900.00,99,9900.00,99
2001,8,1,0,50,-3.21,01,-.07,01,-3.27,01,9900.00,99,9900.00,99
2001,8,1,0,55,-3.17,01,-.01,01,-3.28,01,9900.00,99,9900.00,99
2001,8,1,1,0,-2.98,01,.17,01,-3.15,01,9900.00,99,9900.00,99
2001,8,1,1,5,-2.88,01,.19,01,-2.90,01,9900.00,99,9900.00,99
2001,8,1,1,10,-2.98,01,.11,01,-3.00,01,9900.00,99,9900.00,99
2001,8,1,1,15,-3.06,01,.13,01,-3.13,01,9900.00,99,9900.00,99
2001,8,1,1,20,-3.64,01,-.03,01,-3.43,01,9900.00,99,9900.00,99
2001,8,1,1,25,-4.06,01,.03,01,-3.74,01,9900.00,99,9900.00,99
2001,8,1,1,30,-3.30,01,.06,01,-3.28,01,9900.00,99,9900.00,99
2001,8,1,1,35,-3.29,01,.21,01,-3.28,01,9900.00,99,9900.00,99
2001,8,1,1,40,-3.10,01,.18,01,-3.19,01,9900.00,99,9900.00,99
2001,8,1,1,45,-3.20,01,.21,01,-3.28,01,9900.00,99,9900.00,99
2001,8,1,1,50,-3.11,01,.17,01,-3.13,01,9900.00,99,9900.00,99
2001,8,1,1,55,-2.73,01,.28,01,-2.56,01,9900.00,99,9900.00,99
2001,8,1,2,0,-2.60,01,.32,01,-2.47,01,9900.00,99,9900.00,99
2001,8,1,2,5,-2.69,01,.30,01,-2.69,01,9900.00,99,9900.00,99
2001,8,1,2,10,-2.75,01,.27,01,-2.79,01,9900.00,99,9900.00,99
2001,8,1,2,15,-2.76,01,.20,01,-2.90,01,9900.00,99,9900.00,99
2001,8,1,2,20,-2.91,01,.23,01,-3.07,01,9900.00,99,9900.00,99
2001,8,1,2,25,-2.88,01,.05,01,-3.06,01,9900.00,99,9900.00,99
2001,8,1,2,30,-3.27,01,-.01,01,-3.28,01,9900.00,99,9900.00,99
2001,8,1,2,35,-3.44,01,.01,01,-3.30,01,9900.00,99,9900.00,99
2001,8,1,2,40,-3.08,01,-.06,01,-3.08,01,9900.00,99,9900.00,99
2001,8,1,2,45,-3.42,01,-.02,01,-3.29,01,9900.00,99,9900.00,99
2001,8,1,2,50,-3.57,01,.10,01,-3.32,01,9900.00,99,9900.00,99
2001,8,1,2,55,-4.41,01,.03,01,-4.18,01,9900.00,99,9900.00,99
2001,8,1,3,0,-4.03,01,.06,01,-3.63,01,9900.00,99,9900.00,99
2001,8,1,3,5,-3.92,01,.04,01,-3.48,01,9900.00,99,9900.00,99
2001,8,1,3,10,-3.38,01,.13,01,-3.28,01,9900.00,99,9900.00,99
2001,8,1,3,15,-3.32,01,.24,01,-3.28,01,9900.00,99,9900.00,99
2001,8,1,3,20,-3.15,01,.37,01,-3.19,01,9900.00,99,9900.00,99
2001,8,1,3,25,-2.84,01,.37,01,-2.87,01,9900.00,99,9900.00,99
2001,8,1,3,30,-3.52,01,.22,01,-3.27,01,9900.00,99,9900.00,99
2001,8,1,3,35,-3.60,01,.16,01,-3.39,01,9900.00,99,9900.00,99
2001,8,1,3,40,-3.38,01,.16,01,-3.28,01,9900.00,99,9900.00,99
2001,8,1,3,45,-3.57,01,.26,01,-3.33,01,9900.00,99,9900.00,99
2001,8,1,3,50,-4.20,01,.08,01,-4.02,01,9900.00,99,9900.00,99
2001,8,1,3,55,-3.72,01,.19,01,-3.43,01,9900.00,99,9900.00,99
2001,8,1,4,0,-3.28,01,.35,01,-3.27,01,9900.00,99,9900.00,99
2001,8,1,4,5,-3.27,01,.37,01,-3.28,01,9900.00,99,9900.00,99
2001,8,1,4,10,-2.88,01,.43,01,-2.79,01,9900.00,99,9900.00,99
2001,8,1,4,15,-2.70,01,.45,01,-2.27,01,9900.00,99,9900.00,99
2001,8,1,4,20,-3.45,01,.26,01,-3.25,01,9900.00,99,9900.00,99
2001,8,1,4,25,-3.32,01,.22,01,-3.26,01,9900.00,99,9900.00,99
2001,8,1,4,30,-3.20,01,.30,01,-3.11,01,9900.00,99,9900.00,99
2001,8,1,4,35,-3.09,01,.30,01,-3.09,01,9900.00,99,9900.00,99
2001,8,1,4,40,-3.19,01,.28,01,-3.25,01,9900.00,99,9900.00,99
2001,8,1,4,45,-2.73,01,.43,01,-2.69,01,9900.00,99,9900.00,99
2001,8,1,4,50,-2.94,01,.39,01,-2.89,01,9900.00,99,9900.00,99
2001,8,1,4,55,-2.87,01,.28,01,-2.65,01,9900.00,99,9900.00,99
2001,8,1,5,0,-3.20,01,.26,01,-3.25,01,9900.00,99,9900.00,99
2001,8,1,5,5,-3.14,01,.14,01,-3.24,01,9900.00,99,9900.00,99
2001,8,1,5,10,-3.21,01,.14,01,-3.25,01,9900.00,99,9900.00,99
2001,8,1,5,15,-2.83,01,.19,01,-2.75,01,9900.00,99,9900.00,99
2001,8,1,5,20,-2.57,01,.14,01,-2.31,01,9900.00,99,9900.00,99
2001,8,1,5,25,-.87,01,.28,01,-.84,01,9900.00,99,9900.00,99
2001,8,1,5,30,.70,01,.29,01,.73,01,9900.00,99,9900.00,99
2001,8,1,5,35,2.34,01,.30,01,2.21,01,9900.00,99,9900.00,99
2001,8,1,5,40,5.50,01,1.63,01,4.89,01,9900.00,99,9900.00,99
2001,8,1,5,45,9.26,01,4.48,01,8.52,01,9900.00,99,9900.00,99
2001,8,1,5,50,13.51,01,6.08,01,11.87,01,9900.00,99,9900.00,99
2001,8,1,5,55,19.11,01,9.23,01,16.93,01,9900.00,99,9900.00,99
2001,8,1,6,0,24.45,01,17.62,01,22.33,01,9900.00,99,9900.00,99
2001,8,1,6,5,32.84,01,62.29,01,28.71,01,9900.00,99,9900.00,99
2001,8,1,6,10,46.71,01,85.52,01,43.58,01,9900.00,99,9900.00,99
2001,8,1,6,15,57.40,01,107.38,01,50.55,01,9900.00,99,9900.00,99
2001,8,1,6,20,67.69,01,125.21,01,57.07,01,9900.00,99,9900.00,99
2001,8,1,6,25,79.23,01,145.51,01,66.88,01,9900.00,99,9900.00,99
2001,8,1,6,30,91.98,22,166.78,23,75.30,23,9900.00,99,9900.00,99
2001,8,1,6,35,104.84,22,191.61,23,82.59,23,9900.00,99,9900.00,99
2001,8,1,6,40,117.86,18,215.23,19,89.00,19,9900.00,99,9900.00,99
2001,8,1,6,45,132.05,26,237.96,27,96.22,27,9900.00,99,9900.00,99
2001,8,1,6,50,147.99,26,262.37,27,103.57,27,9900.00,99,9900.00,99
2001,8,1,6,55,161.36,22,280.80,23,108.94,23,9900.00,99,9900.00,99
2001,8,1,7,0,175.61,22,297.22,23,114.99,23,9900.00,99,9900.00,99
2001,8,1,7,5,192.77,22,316.99,23,122.32,23,9900.00,99,9900.00,99
2001,8,1,7,10,208.06,22,332.02,23,127.58,23,9900.00,99,9900.00,99
2001,8,1,7,15,224.42,18,345.07,19,134.34,19,9900.00,99,9900.00,99
2001,8,1,7,20,239.77,18,354.08,19,141.08,19,9900.00,99,9900.00,99
2001,8,1,7,25,253.80,18,361.08,19,147.15,19,9900.00,99,9900.00,99
2001,8,1,7,30,270.35,18,377.35,19,152.44,19,9900.00,99,9900.00,99
2001,8,1,7,35,285.25,18,393.45,19,156.09,19,9900.00,99,9900.00,99
2001,8,1,7,40,299.14,18,400.59,19,161.51,19,9900.00,99,9900.00,99
2001,8,1,7,45,317.90,18,418.91,19,166.99,19,9900.00,99,9900.00,99
2001,8,1,7,50,334.55,18,422.21,19,175.96,19,9900.00,99,9900.00,99
2001,8,1,7,55,349.67,18,419.51,19,186.06,19,9900.00,99,9900.00,99
2001,8,1,8,0,361.66,14,414.40,15,194.86,15,9900.00,99,9900.00,99
2001,8,1,8,5,377.94,14,423.05,15,201.91,15,9900.00,99,9900.00,99
2001,8,1,8,10,393.24,14,427.17,15,208.69,15,9900.00,99,9900.00,99
2001,8,1,8,15,419.63,14,456.31,15,214.26,15,9900.00,99,9900.00,99
2001,8,1,8,20,438.28,18,463.78,19,221.55,19,9900.00,99,9900.00,99
2001,8,1,8,25,457.32,14,463.32,15,233.80,15,9900.00,99,9900.00,99
2001,8,1,8,30,472.55,10,470.36,11,237.64,11,9900.00,99,9900.00,99
2001,8,1,8,35,489.08,14,475.35,15,244.21,15,9900.00,99,9900.00,99
2001,8,1,8,40,502.90,10,469.17,11,255.87,11,9900.00,99,9900.00,99
2001,8,1,8,45,523.14,10,464.83,11,271.85,11,9900.00,99,9900.00,99
2001,8,1,8,50,536.05,03,441.67,03,288.96,03,9900.00,99,9900.00,99
2001,8,1,8,55,567.75,14,431.06,15,321.16,15,9900.00,99,9900.00,99
2001,8,1,9,0,540.43,03,292.13,03,364.57,03,9900.00,99,9900.00,99
2001,8,1,9,5,512.19,03,221.28,03,373.41,03,9900.00,99,9900.00,99
2001,8,1,9,10,558.94,03,307.04,03,366.29,03,9900.00,99,9900.00,99
2001,8,1,9,15,522.50,03,241.72,03,368.70,03,9900.00,99,9900.00,99
2001,8,1,9,20,638.18,10,378.40,11,393.77,11,9900.00,99,9900.00,99
2001,8,1,9,25,673.97,03,393.06,03,408.32,03,9900.00,99,9900.00,99
2001,8,1,9,30,507.07,03,144.31,03,411.93,03,9900.00,99,9900.00,99
2001,8,1,9,35,503.00,03,127.33,03,414.41,03,9900.00,99,9900.00,99
2001,8,1,9,40,703.03,03,388.54,03,420.75,03,9900.00,99,9900.00,99
2001,8,1,9,45,577.51,03,229.18,03,409.34,03,9900.00,99,9900.00,99
2001,8,1,9,50,751.36,10,419.51,11,457.37,11,9900.00,99,9900.00,99
2001,8,1,9,55,817.15,10,504.98,11,461.80,11,9900.00,99,9900.00,99
2001,8,1,10,0,848.05,10,472.41,11,506.90,11,9900.00,99,9900.00,99
2001,8,1,10,5,729.33,03,281.03,03,519.14,03,9900.00,99,9900.00,99
2001,8,1,10,10,678.23,03,305.49,03,446.78,03,9900.00,99,9900.00,99
2001,8,1,10,15,403.57,03,25.25,03,397.53,03,9900.00,99,9900.00,99
2001,8,1,10,20,332.66,15,2.80,14,297.82,14,9900.00,99,9900.00,99
2001,8,1,10,25,315.77,15,.86,14,280.42,14,9900.00,99,9900.00,99
2001,8,1,10,30,410.20,23,6.24,22,343.39,22,9900.00,99,9900.00,99
2001,8,1,10,35,406.23,03,40.97,03,378.18,03,9900.00,99,9900.00,99
2001,8,1,10,40,338.43,15,4.89,14,294.36,14,9900.00,99,9900.00,99
2001,8,1,10,45,913.44,03,531.38,03,466.78,03,9900.00,99,9900.00,99
2001,8,1,10,50,496.58,03,99.65,03,410.60,03,9900.00,99,9900.00,99
2001,8,1,10,55,368.73,19,5.16,18,319.03,18,9900.00,99,9900.00,99
2001,8,1,11,0,566.60,03,135.96,03,457.28,03,9900.00,99,9900.00,99
2001,8,1,11,5,441.39,03,29.80,03,426.79,03,9900.00,99,9900.00,99
2001,8,1,11,10,938.26,03,448.56,03,555.38,03,9900.00,99,9900.00,99
2001,8,1,11,15,833.27,10,371.50,11,532.56,11,9900.00,99,9900.00,99
2001,8,1,11,20,360.28,03,7.83,03,318.94,03,9900.00,99,9900.00,99
2001,8,1,11,25,361.72,03,29.33,03,345.77,03,9900.00,99,9900.00,99
2001,8,1,11,30,698.36,03,367.53,03,371.80,03,9900.00,99,9900.00,99
2001,8,1,11,35,348.54,11,3.40,10,316.94,10,9900.00,99,9900.00,99
2001,8,1,11,40,331.76,11,3.30,10,294.59,10,9900.00,99,9900.00,99
2001,8,1,11,45,341.55,03,26.55,03,328.69,03,9900.00,99,9900.00,99
2001,8,1,11,50,702.38,03,279.83,03,431.91,03,9900.00,99,9900.00,99
2001,8,1,11,55,1067.00,14,603.98,15,541.06,15,9900.00,99,9900.00,99
2001,8,1,12,0,839.18,03,392.10,03,474.54,03,9900.00,99,9900.00,99
2001,8,1,12,5,536.38,03,159.16,03,392.65,03,9900.00,99,9900.00,99
2001,8,1,12,10,442.93,03,124.14,03,328.08,03,9900.00,99,9900.00,99
2001,8,1,12,15,303.85,03,53.51,03,268.93,03,9900.00,99,9900.00,99
2001,8,1,12,20,233.10,03,2.20,03,208.23,03,9900.00,99,9900.00,99
2001,8,1,12,25,215.58,03,1.01,03,192.54,03,9900.00,99,9900.00,99
2001,8,1,12,30,279.87,03,2.39,03,245.60,03,9900.00,99,9900.00,99
2001,8,1,12,35,481.68,10,153.44,11,359.00,11,9900.00,99,9900.00,99
2001,8,1,12,40,324.55,11,4.11,10,287.44,10,9900.00,99,9900.00,99
2001,8,1,12,45,530.80,03,127.33,03,418.75,03,9900.00,99,9900.00,99
2001,8,1,12,50,879.04,03,442.13,03,467.54,03,9900.00,99,9900.00,99
2001,8,1,12,55,639.44,03,204.04,03,456.98,03,9900.00,99,9900.00,99
2001,8,1,13,0,301.17,11,6.57,10,266.50,10,9900.00,99,9900.00,99
2001,8,1,13,5,234.66,03,2.01,03,210.41,03,9900.00,99,9900.00,99
2001,8,1,13,10,274.50,03,1.57,03,243.72,03,9900.00,99,9900.00,99
2001,8,1,13,15,248.22,03,1.74,03,220.35,03,9900.00,99,9900.00,99
2001,8,1,13,20,433.89,03,112.94,03,321.10,03,9900.00,99,9900.00,99
2001,8,1,13,25,874.45,03,518.42,03,401.71,03,9900.00,99,9900.00,99
2001,8,1,13,30,794.85,03,411.87,03,433.19,03,9900.00,99,9900.00,99
2001,8,1,13,35,927.14,03,506.73,03,485.70,03,9900.00,99,9900.00,99
2001,8,1,13,40,945.17,03,545.32,03,474.49,03,9900.00,99,9900.00,99
2001,8,1,13,45,837.07,03,485.40,03,424.46,03,9900.00,99,9900.00,99
2001,8,1,13,50,935.90,03,627.82,03,399.65,03,9900.00,99,9900.00,99
2001,8,1,13,55,939.39,14,603.77,15,437.16,15,9900.00,99,9900.00,99
2001,8,1,14,0,942.78,10,595.95,11,448.25,11,9900.00,99,9900.00,99
2001,8,1,14,5,770.54,10,435.33,11,420.63,11,9900.00,99,9900.00,99
2001,8,1,14,10,303.63,03,11.37,03,265.31,03,9900.00,99,9900.00,99
2001,8,1,14,15,273.79,11,2.68,10,243.72,10,9900.00,99,9900.00,99
2001,8,1,14,20,251.07,03,1.03,03,229.28,03,9900.00,99,9900.00,99
2001,8,1,14,25,231.41,03,.74,03,209.88,03,9900.00,99,9900.00,99
2001,8,1,14,30,230.58,03,.50,03,209.59,03,9900.00,99,9900.00,99
2001,8,1,14,35,257.61,03,.98,03,231.33,03,9900.00,99,9900.00,99
2001,8,1,14,40,653.99,03,361.94,03,369.95,03,9900.00,99,9900.00,99
2001,8,1,14,45,828.07,03,572.57,03,379.41,03,9900.00,99,9900.00,99
2001,8,1,14,50,442.03,03,189.51,03,308.18,03,9900.00,99,9900.00,99
2001,8,1,14,55,654.93,03,402.23,03,347.56,03,9900.00,99,9900.00,99
2001,8,1,15,0,709.91,03,482.17,03,350.31,03,9900.00,99,9900.00,99
2001,8,1,15,5,727.76,10,499.32,11,361.36,11,9900.00,99,9900.00,99
2001,8,1,15,10,817.71,14,605.85,15,385.38,15,9900.00,99,9900.00,99
2001,8,1,15,15,470.92,10,217.67,11,331.60,11,9900.00,99,9900.00,99
2001,8,1,15,20,193.19,03,4.03,03,176.95,03,9900.00,99,9900.00,99
2001,8,1,15,25,157.31,03,-.40,03,145.90,03,9900.00,99,9900.00,99
2001,8,1,15,30,159.31,03,-.68,03,147.17,03,9900.00,99,9900.00,99
2001,8,1,15,35,156.88,03,1.38,03,141.99,03,9900.00,99,9900.00,99
2001,8,1,15,40,577.45,03,507.35,03,236.40,03,9900.00,99,9900.00,99
2001,8,1,15,45,644.13,10,581.75,11,270.70,11,9900.00,99,9900.00,99
2001,8,1,15,50,650.48,14,586.88,15,286.86,15,9900.00,99,9900.00,99
2001,8,1,15,55,660.20,18,572.73,19,316.99,19,9900.00,99,9900.00,99
2001,8,1,16,0,705.68,18,553.51,19,382.33,19,9900.00,99,9900.00,99
2001,8,1,16,5,387.33,14,160.60,15,319.53,15,9900.00,99,9900.00,99
2001,8,1,16,10,236.16,03,3.70,03,215.74,03,9900.00,99,9900.00,99
2001,8,1,16,15,191.37,03,.81,03,170.61,03,9900.00,99,9900.00,99
2001,8,1,16,20,219.30,03,-.37,03,199.47,03,9900.00,99,9900.00,99
2001,8,1,16,25,197.10,03,-.26,03,179.56,03,9900.00,99,9900.00,99
2001,8,1,16,30,203.47,15,3.83,14,174.52,14,9900.00,99,9900.00,99
2001,8,1,16,35,135.66,03,.59,03,122.89,03,9900.00,99,9900.00,99
2001,8,1,16,40,278.85,10,214.65,11,178.32,11,9900.00,99,9900.00,99
2001,8,1,16,45,447.21,18,484.76,19,217.94,19,9900.00,99,9900.00,99
2001,8,1,16,50,417.45,14,463.11,15,208.21,15,9900.00,99,9900.00,99
2001,8,1,16,55,385.60,10,444.16,11,189.90,11,9900.00,99,9900.00,99
2001,8,1,17,0,375.25,14,439.53,15,189.94,15,9900.00,99,9900.00,99
2001,8,1,17,5,354.97,14,413.54,15,187.08,15,9900.00,99,9900.00,99
2001,8,1,17,10,350.20,14,424.39,15,184.52,15,9900.00,99,9900.00,99
2001,8,1,17,15,346.09,18,398.20,19,198.01,19,9900.00,99,9900.00,99
2001,8,1,17,20,303.99,14,322.51,15,190.54,15,9900.00,99,9900.00,99
2001,8,1,17,25,302.54,14,334.20,15,190.84,15,9900.00,99,9900.00,99
2001,8,1,17,30,213.11,10,142.92,11,170.78,11,9900.00,99,9900.00,99
2001,8,1,17,35,247.01,14,267.24,15,165.51,15,9900.00,99,9900.00,99
2001,8,1,17,40,240.32,14,293.75,15,155.76,15,9900.00,99,9900.00,99
2001,8,1,17,45,225.95,18,292.98,19,146.64,19,9900.00,99,9900.00,99
2001,8,1,17,50,209.56,18,273.74,19,141.00,19,9900.00,99,9900.00,99
2001,8,1,17,55,192.94,18,254.39,19,134.24,19,9900.00,99,9900.00,99
2001,8,1,18,0,166.28,18,205.93,19,122.86,19,9900.00,99,9900.00,99
2001,8,1,18,5,157.15,14,190.57,15,120.08,15,9900.00,99,9900.00,99
2001,8,1,18,10,141.99,14,163.22,15,114.02,15,9900.00,99,9900.00,99
2001,8,1,18,15,108.04,03,64.55,03,100.39,03,9900.00,99,9900.00,99
2001,8,1,18,20,96.54,10,67.06,11,88.95,11,9900.00,99,9900.00,99
2001,8,1,18,25,109.09,14,119.07,15,96.13,15,9900.00,99,9900.00,99
2001,8,1,18,30,98.55,10,97.46,11,87.97,11,9900.00,99,9900.00,99
2001,8,1,18,35,79.36,03,45.04,03,77.81,03,9900.00,99,9900.00,99
2001,8,1,18,40,66.01,01,7.49,01,57.02,01,9900.00,99,9900.00,99
2001,8,1,18,45,48.76,01,1.50,01,42.39,01,9900.00,99,9900.00,99
2001,8,1,18,50,37.16,01,.19,01,32.21,01,9900.00,99,9900.00,99
2001,8,1,18,55,29.43,01,-.30,01,25.43,01,9900.00,99,9900.00,99
2001,8,1,19,0,22.87,01,-.48,01,19.83,01,9900.00,99,9900.00,99
2001,8,1,19,5,18.20,01,-.55,01,15.71,01,9900.00,99,9900.00,99
2001,8,1,19,10,16.31,01,-.65,01,13.99,01,9900.00,99,9900.00,99
2001,8,1,19,15,13.03,01,-.58,01,11.29,01,9900.00,99,9900.00,99
2001,8,1,19,20,8.33,01,-.58,01,7.30,01,9900.00,99,9900.00,99
2001,8,1,19,25,3.27,01,-.59,01,3.21,01,9900.00,99,9900.00,99
2001,8,1,19,30,-.37,01,-.53,01,-.75,01,9900.00,99,9900.00,99
2001,8,1,19,35,-2.29,01,-.52,01,-2.22,01,9900.00,99,9900.00,99
2001,8,1,19,40,-3.32,01,-.55,01,-3.31,01,9900.00,99,9900.00,99
2001,8,1,19,45,-4.20,01,-.51,01,-4.06,01,9900.00,99,9900.00,99
2001,8,1,19,50,-4.74,01,-.44,01,-4.21,01,9900.00,99,9900.00,99
2001,8,1,19,55,-4.97,01,-.45,01,-4.37,01,9900.00,99,9900.00,99
2001,8,1,20,0,-4.60,01,-.35,01,-4.13,01,9900.00,99,9900.00,99
2001,8,1,20,5,-3.83,01,-.32,01,-3.72,01,9900.00,99,9900.00,99
2001,8,1,20,10,-3.73,01,-.32,01,-3.62,01,9900.00,99,9900.00,99
2001,8,1,20,15,-3.24,01,-.34,01,-3.27,01,9900.00,99,9900.00,99
2001,8,1,20,20,-3.43,01,-.33,01,-3.32,01,9900.00,99,9900.00,99
2001,8,1,20,25,-4.04,01,-.25,01,-3.92,01,9900.00,99,9900.00,99
2001,8,1,20,30,-3.21,01,-.24,01,-3.28,01,9900.00,99,9900.00,99
2001,8,1,20,35,-3.39,01,-.29,01,-3.29,01,9900.00,99,9900.00,99
2001,8,1,20,40,-3.36,01,-.32,01,-3.28,01,9900.00,99,9900.00,99
2001,8,1,20,45,-3.29,01,-.26,01,-3.24,01,9900.00,99,9900.00,99
2001,8,1,20,50,-3.28,01,-.26,01,-3.28,01,9900.00,99,9900.00,99
2001,8,1,20,55,-2.99,01,-.22,01,-3.06,01,9900.00,99,9900.00,99
2001,8,1,21,0,-3.26,01,-.25,01,-3.26,01,9900.00,99,9900.00,99
2001,8,1,21,5,-3.65,01,-.25,01,-3.48,01,9900.00,99,9900.00,99
2001,8,1,21,10,-3.64,01,-.23,01,-3.39,01,9900.00,99,9900.00,99
2001,8,1,21,15,-3.25,01,-.26,01,-3.27,01,9900.00,99,9900.00,99
2001,8,1,21,20,-3.15,01,-.21,01,-3.26,01,9900.00,99,9900.00,99
2001,8,1,21,25,-3.23,01,-.12,01,-3.24,01,9900.00,99,9900.00,99
2001,8,1,21,30,-3.16,01,-.21,01,-3.27,01,9900.00,99,9900.00,99
2001,8,1,21,35,-3.49,01,-.14,01,-3.31,01,9900.00,99,9900.00,99
2001,8,1,21,40,-3.38,01,-.13,01,-3.29,01,9900.00,99,9900.00,99
2001,8,1,21,45,-3.16,01,-.12,01,-3.13,01,9900.00,99,9900.00,99
2001,8,1,21,50,-3.17,01,-.17,01,-3.19,01,9900.00,99,9900.00,99
2001,8,1,21,55,-3.22,01,-.17,01,-3.28,01,9900.00,99,9900.00,99
2001,8,1,22,0,-3.16,01,-.18,01,-3.23,01,9900.00,99,9900.00,99
2001,8,1,22,5,-3.28,01,-.24,01,-3.28,01,9900.00,99,9900.00,99
2001,8,1,22,10,-3.25,01,-.30,01,-3.28,01,9900.00,99,9900.00,99
2001,8,1,22,15,-3.34,01,-.28,01,-3.28,01,9900.00,99,9900.00,99
2001,8,1,22,20,-3.32,01,-.24,01,-3.30,01,9900.00,99,9900.00,99
2001,8,1,22,25,-3.41,01,-.17,01,-3.28,01,9900.00,99,9900.00,99
2001,8,1,22,30,-4.02,01,-.03,01,-3.74,01,9900.00,99,9900.00,99
2001,8,1,22,35,-5.00,01,-.11,01,-4.34,01,9900.00,99,9900.00,99
2001,8,1,22,40,-4.87,01,-.08,01,-4.25,01,9900.00,99,9900.00,99
2001,8,1,22,45,-3.63,01,.06,01,-3.53,01,9900.00,99,9900.00,99
2001,8,1,22,50,-3.27,01,.11,01,-3.28,01,9900.00,99,9900.00,99
2001,8,1,22,55,-3.97,01,.03,01,-3.61,01,9900.00,99,9900.00,99
2001,8,1,23,0,-4.42,01,.06,01,-4.03,01,9900.00,99,9900.00,99
2001,8,1,23,5,-3.32,01,.06,01,-3.28,01,9900.00,99,9900.00,99
2001,8,1,23,10,-3.85,01,.15,01,-3.36,01,9900.00,99,9900.00,99
2001,8,1,23,15,-4.08,01,.15,01,-3.46,01,9900.00,99,9900.00,99
2001,8,1,23,20,-3.17,01,.26,01,-2.99,01,9900.00,99,9900.00,99
2001,8,1,23,25,-2.79,01,.17,01,-2.74,01,9900.00,99,9900.00,99
2001,8,1,23,30,-3.14,01,.19,01,-3.18,01,9900.00,99,9900.00,99
2001,8,1,23,35,-3.15,01,.05,01,-3.17,01,9900.00,99,9900.00,99
2001,8,1,23,40,-3.29,01,.08,01,-3.28,01,9900.00,99,9900.00,99
2001,8,1,23,45,-3.14,01,.14,01,-3.21,01,9900.00,99,9900.00,99
2001,8,1,23,50,-3.37,01,.12,01,-3.25,01,9900.00,99,9900.00,99
2001,8,1,23,55,-3.37,01,0.00,01,-3.28,01,9900.00,99,9900.00,99
2001,8,2,0,0,-3.37,01,0.00,01,-3.26,01,9900.00,99,9900.00,99
2001,8,2,0,5,-3.13,01,.07,01,-3.01,01,9900.00,99,9900.00,99
2001,8,2,0,10,-3.55,01,.03,01,-3.27,01,9900.00,99,9900.00,99
2001,8,2,0,15,-3.63,01,.08,01,-3.29,01,9900.00,99,9900.00,99
2001,8,2,0,20,-3.09,01,.08,01,-3.07,01,9900.00,99,9900.00,99
2001,8,2,0,25,-2.95,01,.21,01,-2.94,01,9900.00,99,9900.00,99
2001,8,2,0,30,-3.11,01,.24,01,-3.11,01,9900.00,99,9900.00,99
2001,8,2,0,35,-3.22,01,.14,01,-3.23,01,9900.00,99,9900.00,99
2001,8,2,0,40,-3.36,01,.08,01,-3.28,01,9900.00,99,9900.00,99
2001,8,2,0,45,-3.06,01,.17,01,-3.07,01,9900.00,99,9900.00,99
2001,8,2,0,50,-2.83,01,.19,01,-2.91,01,9900.00,99,9900.00,99
2001,8,2,0,55,-3.01,01,.14,01,-3.07,01,9900.00,99,9900.00,99
2001,8,2,1,0,-2.88,01,.19,01,-2.85,01,9900.00,99,9900.00,99
2001,8,2,1,5,-2.51,01,.21,01,-2.08,01,9900.00,99,9900.00,99
2001,8,2,1,10,-2.68,01,.18,01,-2.64,01,9900.00,99,9900.00,99
2001,8,2,1,15,-2.47,01,.18,01,-2.10,01,9900.00,99,9900.00,99
2001,8,2,1,20,-2.66,01,.15,01,-2.54,01,9900.00,99,9900.00,99
2001,8,2,1,25,-2.67,01,.03,01,-2.64,01,9900.00,99,9900.00,99
2001,8,2,1,30,-2.52,01,.01,01,-2.15,01,9900.00,99,9900.00,99
2001,8,2,1,35,-2.44,01,-.02,01,-2.19,01,9900.00,99,9900.00,99
2001,8,2,1,40,-2.77,01,.03,01,-2.75,01,9900.00,99,9900.00,99
2001,8,2,1,45,-2.30,01,.02,01,-1.98,01,9900.00,99,9900.00,99
2001,8,2,1,50,-2.51,01,-.01,01,-2.11,01,9900.00,99,9900.00,99
2001,8,2,1,55,-2.65,01,-.05,01,-2.51,01,9900.00,99,9900.00,99
2001,8,2,2,0,-2.75,01,-.06,01,-2.86,01,9900.00,99,9900.00,99
2001,8,2,2,5,-2.84,01,-.03,01,-2.93,01,9900.00,99,9900.00,99
2001,8,2,2,10,-2.87,01,.05,01,-3.08,01,9900.00,99,9900.00,99
2001,8,2,2,15,-2.72,01,.08,01,-2.89,01,9900.00,99,9900.00,99
2001,8,2,2,20,-3.01,01,.01,01,-3.20,01,9900.00,99,9900.00,99
2001,8,2,2,25,-3.20,01,-.01,01,-3.28,01,9900.00,99,9900.00,99
2001,8,2,2,30,-2.89,01,.05,01,-3.07,01,9900.00,99,9900.00,99
2001,8,2,2,35,-2.83,01,.05,01,-2.89,01,9900.00,99,9900.00,99
2001,8,2,2,40,-2.95,01,.05,01,-3.08,01,9900.00,99,9900.00,99
2001,8,2,2,45,-3.00,01,-.03,01,-3.08,01,9900.00,99,9900.00,99
2001,8,2,2,50,-3.20,01,-.10,01,-3.26,01,9900.00,99,9900.00,99
2001,8,2,2,55,-3.15,01,-.08,01,-3.18,01,9900.00,99,9900.00,99
2001,8,2,3,0,-3.18,01,-.11,01,-3.27,01,9900.00,99,9900.00,99
2001,8,2,3,5,-3.10,01,-.08,01,-3.27,01,9900.00,99,9900.00,99
2001,8,2,3,10,-3.04,01,.04,01,-3.15,01,9900.00,99,9900.00,99
2001,8,2,3,15,-2.62,01,.08,01,-2.47,01,9900.00,99,9900.00,99
2001,8,2,3,20,-2.48,01,.02,01,-2.12,01,9900.00,99,9900.00,99
2001,8,2,3,25,-2.70,01,-.07,01,-2.66,01,9900.00,99,9900.00,99
2001,8,2,3,30,-2.61,01,-.08,01,-2.65,01,9900.00,99,9900.00,99
2001,8,2,3,35,-2.54,01,-.05,01,-2.47,01,9900.00,99,9900.00,99
2001,8,2,3,40,-2.95,01,-.03,01,-3.04,01,9900.00,99,9900.00,99
2001,8,2,3,45,-2.50,01,.04,01,-2.55,01,9900.00,99,9900.00,99
2001,8,2,3,50,-2.50,01,.06,01,-2.32,01,9900.00,99,9900.00,99
2001,8,2,3,55,-2.64,01,.05,01,-2.39,01,9900.00,99,9900.00,99
2001,8,2,4,0,-3.12,01,-.15,01,-3.14,01,9900.00,99,9900.00,99
2001,8,2,4,5,-3.11,01,-.25,01,-3.24,01,9900.00,99,9900.00,99
2001,8,2,4,10,-2.64,01,-.19,01,-2.70,01,9900.00,99,9900.00,99
2001,8,2,4,15,-1.40,01,.04,01,-1.57,01,9900.00,99,9900.00,99
2001,8,2,4,20,-.57,01,.14,01,-.80,01,9900.00,99,9900.00,99
2001,8,2,4,25,-.25,01,.11,01,-.49,01,9900.00,99,9900.00,99
2001,8,2,4,30,-.15,01,.01,01,-.47,01,9900.00,99,9900.00,99
2001,8,2,4,35,-.18,01,.05,01,-.45,01,9900.00,99,9900.00,99
2001,8,2,4,40,-.25,01,.06,01,-.51,01,9900.00,99,9900.00,99
2001,8,2,4,45,-.47,01,.01,01,-.61,01,9900.00,99,9900.00,99
2001,8,2,4,50,-.67,01,-.05,01,-.80,01,9900.00,99,9900.00,99
2001,8,2,4,55,-1.29,01,-.23,01,-1.44,01,9900.00,99,9900.00,99
2001,8,2,5,0,-2.23,01,-.28,01,-2.05,01,9900.00,99,9900.00,99
2001,8,2,5,5,-2.59,01,-.21,01,-2.65,01,9900.00,99,9900.00,99
2001,8,2,5,10,-3.07,01,-.24,01,-3.21,01,9900.00,99,9900.00,99
2001,8,2,5,15,-2.70,01,-.12,01,-2.58,01,9900.00,99,9900.00,99
2001,8,2,5,20,-.87,01,-.05,01,-.99,01,9900.00,99,9900.00,99
2001,8,2,5,25,-.35,01,.05,01,-.66,01,9900.00,99,9900.00,99
2001,8,2,5,30,.79,01,.09,01,.61,01,9900.00,99,9900.00,99
2001,8,2,5,35,2.28,01,.02,01,1.94,01,9900.00,99,9900.00,99
2001,8,2,5,40,4.55,01,.56,01,3.86,01,9900.00,99,9900.00,99
2001,8,2,5,45,7.96,01,.37,01,7.03,01,9900.00,99,9900.00,99
2001,8,2,5,50,15.81,01,.82,01,13.49,01,9900.00,99,9900.00,99
2001,8,2,5,55,20.62,01,.57,01,17.89,01,9900.00,99,9900.00,99
2001,8,2,6,0,31.58,01,.66,01,28.04,01,9900.00,99,9900.00,99
2001,8,2,6,5,39.80,01,.72,01,35.47,01,9900.00,99,9900.00,99
2001,8,2,6,10,42.27,01,.75,01,37.72,01,9900.00,99,9900.00,99
2001,8,2,6,15,45.28,01,.67,01,40.48,01,9900.00,99,9900.00,99
2001,8,2,6,20,53.57,01,.76,01,48.21,01,9900.00,99,9900.00,99
2001,8,2,6,25,59.14,01,.81,01,53.07,01,9900.00,99,9900.00,99
2001,8,2,6,30,62.00,11,.83,10,55.09,10,9900.00,99,9900.00,99
2001,8,2,6,35,74.85,11,.77,10,67.28,10,9900.00,99,9900.00,99
2001,8,2,6,40,86.29,15,1.01,14,76.92,14,9900.00,99,9900.00,99
2001,8,2,6,45,95.21,11,1.21,10,84.27,10,9900.00,99,9900.00,99
2001,8,2,6,50,87.59,11,1.18,10,77.25,10,9900.00,99,9900.00,99
2001,8,2,6,55,75.46,11,1.12,10,66.33,10,9900.00,99,9900.00,99
2001,8,2,7,0,65.98,03,.76,03,57.64,03,9900.00,99,9900.00,99
2001,8,2,7,5,64.36,03,.68,03,56.71,03,9900.00,99,9900.00,99
2001,8,2,7,10,60.08,03,.65,03,52.88,03,9900.00,99,9900.00,99
2001,8,2,7,15,86.52,03,.55,03,77.04,03,9900.00,99,9900.00,99
2001,8,2,7,20,123.06,15,.79,14,106.18,14,9900.00,99,9900.00,99
2001,8,2,7,25,130.62,15,.78,14,113.46,14,9900.00,99,9900.00,99
2001,8,2,7,30,133.23,15,.95,14,116.42,14,9900.00,99,9900.00,99
2001,8,2,7,35,131.32,03,1.23,03,117.19,03,9900.00,99,9900.00,99
2001,8,2,7,40,187.11,15,1.40,14,166.38,14,9900.00,99,9900.00,99